Miscellaneous Local Product
Issued by NWS Hastings, NE

Home | Current Version | Previous Version | Text Only | Print | Product List | Glossary Off
Versions: 1 2 3 4 5 6 7 8 9 10 11 12 13 14 15 16 17 18 19 20 21 22 23 24 25 26 27 28 29 30 31 32 33 34 35 36 37 38 39 40 41 42 43 44 45 46 47 48 49 50

000
AXUS43 KGID 202010
MISGRI

GID CWA HOURLY WEATHER ROUNDUP
NATIONAL WEATHER SERVICE HASTINGS NE
300 PM CDT SAT SEP 20 2014

NOTE: "FAIR" INDICATES FEW OR NO CLOUDS BELOW 12,000 FEET WITH NO
SIGNIFICANT WEATHER AND/OR OBSTRUCTIONS TO VISIBILITY.

...SOUTH CENTRAL NEBRASKA...

CITY           SKY/WX    TMP DP  RH WIND       PRES   REMARKS
GRAND ISLAND   SUNNY     86  51  29 CALM      30.00F
HASTINGS       SUNNY     85  51  31 N7        30.01S
KEARNEY        SUNNY     82  54  36 N3        30.04S
ORD            SUNNY     83  51  33 NW12      30.00F
YORK           SUNNY     82  59  44 N7        29.98F
AURORA         SUNNY     83  50  30 N3        29.99F
LEXINGTON      SUNNY     85  50  30 NE5       30.05S
HOLDREGE       SUNNY     82  48  30 CALM      30.04S
HEBRON         MOSUNNY   86  52  30 E6        29.97S

...NEBRASKA PANHANDLE...

CITY           SKY/WX    TMP DP  RH WIND       PRES   REMARKS
CHADRON        SUNNY     82  44  26 NW20G26   30.14F
ALLIANCE       SUNNY     81  45  28 NW14G21   30.15F
SCOTTSBLUFF    SUNNY     84  46  26 N10       30.17F
SIDNEY         SUNNY     82  46  28 N10       30.20F

...WESTERN AND NORTH CENTRAL NEBRASKA...

CITY           SKY/WX    TMP DP  RH WIND       PRES   REMARKS
VALENTINE      MOSUNNY   82  47  29 NW22G30   30.06S
AINSWORTH      MOSUNNY   81  47  30 NW16G22   30.04F
ONEILL         SUNNY     83  53  35 W15G21    30.00S
BROKEN BOW     SUNNY     87  48  25 NW14G23   30.04F
IMPERIAL       SUNNY     84  47  27 NW6       30.12F
NORTH PLATTE   SUNNY     84  51  31 N12       30.08F
MCCOOK         SUNNY     86  50  28 N13       30.07S

...EASTERN NEBRASKA...

CITY           SKY/WX    TMP DP  RH WIND       PRES   REMARKS
NORFOLK        SUNNY     83  54  36 NW14      29.96S
SO SIOUX CITY  SUNNY     84  56  38 NW9G16    29.91F
TEKAMAH        SUNNY     85  58  39 NW9       29.92S
ALBION         SUNNY     83  49  30 NW12G18   29.99S
OMAHA EPPLEY   MOSUNNY   85  60  42 NW9       29.91F
OFFUTT AFB     SUNNY     85  67  54 W9        29.91F
MILLARD        SUNNY     84  61  45 NW12      29.91F
LINCOLN        SUNNY     87  59  38 N8        29.95F
NEBRASKA CITY    N/A     82  59  45 W10       29.93F
BEATRICE       SUNNY     84  62  46 S5        29.95F
FALLS CITY     PTSUNNY   78  69  73 W12       29.93F

...NORTHERN KANSAS...

CITY           SKY/WX    TMP DP  RH WIND       PRES   REMARKS
GOODLAND       SUNNY     83  52  34 NE16G25   30.12F
HILL CITY      SUNNY     88  56  33 NE16      30.02S
NORTON         CLEAR     88  43  20 N14G20    30.02F
SMITH CENTER     N/A     86  59  39 NE12G18   30.00S HAZE
BELOIT         PTSUNNY   88  64  45 N6        29.94F
HAYS           MOSUNNY   88  66  48 NW6       29.98S HX  90
RUSSELL        SUNNY     87  67  51 VRB3      29.96S HX  90
CONCORDIA      PTSUNNY   84  68  58 NW3       29.96F
SALINA         PTSUNNY   89  65  44 SW13      29.95F HX  91
TOPEKA         PTSUNNY   88  67  49 S14       29.90F HX  91



USA.gov is the U.S. government's official web portal to all federal, state and local government web resources and services.